Skip Page Navigation
NASA JPL Caltech
NASA Logo - Jet Propulsion Laboratory + View the NASA Portal
+ Center for Near-Earth Object Studies
JPL Home Earth Solar System Stars & Galaxies Technology
JPL Solar System Dynamics
BODIES ORBITS EPHEMERIDES TOOLS PHYSICAL DATA DISCOVERY FAQ SITE MAP
JPL Small-Body Database Browser
Search: [ help ]  
134915 (2000 YV51)
Classification: Main-belt Asteroid          SPK-ID: 2134915
Ephemeris | Orbit Diagram | Orbital Elements | Mission Design | Physical Parameters | Discovery Circumstances ]

[ show orbit diagram ]
Orbital Elements at Epoch 2459200.5 (2020-Dec-17.0) TDB
Reference: JPL 24 (heliocentric ecliptic J2000)
 Element Value Uncertainty (1-sigma)   Units 
e .04770768348193822 3.1596e-08  
a 2.28697077152359 9.6575e-09 au
q 2.177864693823298 7.4124e-08 au
i 6.923097447148725 3.6134e-06 deg
node 295.8774049810561 3.4086e-05 deg
peri 173.5046824788042 6.1473e-05 deg
M 273.0573172974337 5.1292e-05 deg
tp 2459505.584317631174
(2021-Oct-18.08431763)
0.00018075 TDB
period 1263.250119885943
3.46
8.0018e-06
2.191e-08
d
yr
n .2849791932198699 1.8051e-09 deg/d
Q 2.396076849223881 1.0118e-08 au
  Orbit Determination Parameters
   # obs. used (total)      803  
   data-arc span      7324 days (20.05 yr)  
   first obs. used      2000-12-20  
   last obs. used      2021-01-08  
   planetary ephem.      DE441  
   SB-pert. ephem.      SB441-N16  
   condition code      0  
   norm. resid. RMS      .51751  
   source      ORB  
   producer      Otto Matic  
   solution date      2021-Apr-13 18:10:41  

Additional Information
 Earth MOID = 1.19452 au 
 Jupiter MOID = 2.66035 au 
 T_jup = 3.590 
[ show covariance matrix ]

Ephemeris | Orbit Diagram | Orbital Elements | Mission Design | Physical Parameters | Discovery Circumstances ]

Physical Parameter Table
Parameter Symbol Value Units Sigma Reference Notes
absolute magnitude H 16.11   n/a E2021B55  

134915 (2000 YV51)          Discovered 2000-Dec-30 by LINEAR at Socorro
Reference: 20060907/Numbers.arcLast Updated: 2006-09-10
Ephemeris | Orbit Diagram | Orbital Elements | Mission Design | Physical Parameters | Discovery Circumstances ]
ABOUT SSD CREDITS/AWARDS PRIVACY/COPYRIGHT GLOSSARY LINKS
FirstGov 2021-Apr-19 11:34 UT
(server date/time)  
NASA Home Page
Site Manager:   Ryan S. Park
Webmaster  Alan B. Chamberlin